This is the latest recevied weather packets stored in our database for station/object OZ1IEP-5. If no packets are shown the sender has not sent any weather packets the latest 10 day(s).
| Time | Temp. | Humidity | Pressure | Rain* | Wind** | Luminosity | Snow |
|---|---|---|---|---|---|---|---|
| 1787947207 | 17.22° C | 90% | 1003.5 hPa | 1.02 mm | - | 0 W/m² | - |
| 1787946605 | 17.78° C | 89% | 1003 hPa | 1.02 mm | - | 0 W/m² | - |
| 1787946005 | 17.78° C | 89% | 1003.2 hPa | 0.76 mm | - | 0 W/m² | - |
| 1787945408 | 17.78° C | 88% | 1003.3 hPa | 0.51 mm | - | 0 W/m² | - |
| 1787944806 | 17.78° C | 88% | 1003 hPa | 0.51 mm | - | 0 W/m² | - |
| 1787944205 | 17.78° C | 88% | 1003.7 hPa | 0.51 mm | - | 0 W/m² | - |
| 1787943618 | 18.33° C | 87% | 1004.1 hPa | 0 mm | - | 0 W/m² | - |
| 1787943005 | 18.33° C | 87% | 1003.6 hPa | 0 mm | - | 0 W/m² | - |
| 1787942406 | 17.78° C | 86% | 1003.7 hPa | 0 mm | - | 0 W/m² | - |
| 1787941808 | 17.78° C | 86% | 1003.1 hPa | 0 mm | - | 0 W/m² | - |
| 1787941206 | 18.33° C | 86% | 1002.9 hPa | 0 mm | - | 0 W/m² | - |
| 1787940606 | 18.33° C | 86% | 1002.9 hPa | 0 mm | - | 0 W/m² | - |
| 1787940008 | 18.33° C | 85% | 1003 hPa | 0 mm | - | 0 W/m² | - |
| 1787939405 | 18.33° C | 85% | 1003 hPa | 0 mm | - | 0 W/m² | - |
| 1787938806 | 18.33° C | 84% | 1003 hPa | 0 mm | - | 16 W/m² | - |
| 1787938208 | 18.33° C | 84% | 1003.3 hPa | 0 mm | - | 23 W/m² | - |
| 1787937605 | 18.89° C | 83% | 1003.5 hPa | 0 mm | - | 44 W/m² | - |
| 1787937005 | 18.89° C | 83% | 1003.5 hPa | 0 mm | - | 58 W/m² | - |
| 1787936408 | 18.89° C | 83% | 1003.5 hPa | 0 mm | - | 69 W/m² | - |
| 1787935806 | 18.89° C | 83% | 1003.5 hPa | 0 mm | - | 76 W/m² | - |
| 1787935206 | 18.89° C | 83% | 1004 hPa | 0 mm | - | 28 W/m² | - |
| 1787934609 | 18.89° C | 83% | 1003.7 hPa | 0 mm | - | 53 W/m² | - |
| 1787934006 | 18.89° C | 83% | 1004.1 hPa | 0 mm | - | 35 W/m² | - |
| 1787933405 | 18.89° C | 83% | 1004.6 hPa | 0 mm | - | 35 W/m² | - |
| 1787932809 | 18.89° C | 83% | 1004 hPa | 0 mm | - | 28 W/m² | - |
* Rain latest hour (hover to see other rain measurements)
** Current wind speed in m/s (hover to see current wind gust speed)